Location: Sungai Bunut
(2.6333°N, 113.7333°E)
Time: 13:10:15
(UTC+00:00)

SR - Pass Details

Date: 12 December 2023
Orbit: 574 x 867 km, 66.7° (Epoch: 29 February)

Event Time Altitude Azimuth Distance (km) Brightness Sun altitude
Rises 23:47:59 0° 180° (S) 3,016 ? 19.3°
Reaches altitude 10° 23:50:27 10° 169° (S) 2,149 ? 19.8°
Maximum altitude 23:54:45 30° 108° (ESE) 1,290 ? 20.8°
Drops below altitude 10° 23:59:20 10° 48° (NE) 2,316 ? 21.8°
Sets 00:02:05 0° 38° (NE) 3,290 ? 22.4°
